Weather History for Hamilton Airport, ON

Change the Weather History Date:

Tuesday, October 1, 2013

  Actual Average Record
Temperature  
Mean Temperature 63 °F -  
Max Temperature 75 °F 57 °F 80 °F (2002)
Min Temperature 51 °F 40 °F 33 °F (2003)
Degree Days  
Heating Degree Days 2    
Growing Degree Days 13 (Base 50)    
Moisture  
Dew Point 57 °F    
Average Humidity 88    
Maximum Humidity 100    
Minimum Humidity 43    
Precipitation  
Precipitation 0.00 in 0.09 in - ()
Sea Level Pressure  
Sea Level Pressure 29.99 in    
Wind  
Wind Speed 6 mph ()    
Max Wind Speed 20 mph    
Max Gust Speed 28 mph    
Visibility 7.1 miles    
Events Fog    
Averages and records for this station are not official NWS values.
T = Trace of Precipitation, MM = Missing Value Source: Averaged Metar Reports

Daily Weather History Graph

Daily Weather History Graph

Search for Another Location

Airport:

Trip Planner

Search our weather history database for the weather conditions in past years. The results will help you decide how hot, cold, wet, or windy it might be!

Date:

Astronomy

Oct. 01, 2013 Rise Set
Actual Time 7:17 AM EDT 7:00 PM EDT
Civil Twilight 6:48 AM EDT 7:28 PM EDT
Nautical Twilight 6:15 AM EDT 8:01 PM EDT
Astronomical Twilight 5:42 AM EDT 8:35 PM EDT
Moon 3:45 AM EDT 5:07 PM EDT
Length of Visible Light 12h 39m
Length of Day
11h 43m
Waning Crescent, 12% of the Moon is Illuminated
Oct 1
Waning Crescent
Oct 4
New
Oct 11
First Quarter
Oct 18
Full
Oct 26
Last Quarter

Hourly Weather History & Observations

Time (EDT) Temp. Dew Point Humidity Pressure Visibility Wind Dir Wind Speed Gust Speed Precip Events Conditions
12:00 AM 57.2 °F 55.4 °F 94% 29.99 in 10.0 mi WSW 2.3 mph - N/A Fog Patches of Fog
1:00 AM 55.4 °F 55.4 °F 100% 29.99 in 10.0 mi WSW 2.3 mph - N/A Fog Patches of Fog
2:00 AM 56 °F 55 °F 95% 30.00 in 10 mi West 3.5 mph - -   Partly Cloudy
2:00 AM 55.4 °F 55.4 °F 100% 30.00 in 10.0 mi West 3.5 mph - N/A Fog Patches of Fog
3:00 AM 53.6 °F 53.6 °F 100% 30.00 in 0.2 mi WNW 2.3 mph - N/A Fog Fog
4:00 AM 53.6 °F 51.8 °F 94% 30.00 in 0.1 mi Calm Calm - N/A Fog Fog
5:00 AM 51.8 °F 51.8 °F 100% 30.00 in 0.1 mi SSW 3.5 mph - N/A Fog Fog
6:00 AM 55.4 °F 53.6 °F 94% 30.01 in 0.1 mi SW 4.6 mph - N/A Fog Fog
6:21 AM 55.4 °F 55.4 °F 100% 30.01 in 0.5 mi West 3.5 mph - N/A Fog Fog
6:47 AM 55.4 °F 55.4 °F 100% 30.01 in 1.2 mi WSW 2.3 mph - N/A   Overcast
7:00 AM 55.4 °F 55.4 °F 100% 30.01 in 1.8 mi SSW 2.3 mph - N/A   Overcast
7:20 AM 57.2 °F 57.2 °F 100% 30.02 in 4.0 mi SSW 4.6 mph - N/A   Overcast
7:45 AM 57.2 °F 57.2 °F 100% 30.02 in 2.5 mi West 3.5 mph - N/A   Overcast
7:52 AM 57.2 °F 57.2 °F 100% 30.03 in 1.8 mi WSW 5.8 mph - N/A   Overcast
8:00 AM 57 °F 57 °F 98% 30.03 in 2 mi WSW 5.8 mph - -   Mist
8:00 AM 57.2 °F 57.2 °F 100% 30.03 in 1.8 mi WSW 4.6 mph - N/A   Overcast
8:08 AM 57.2 °F 57.2 °F 100% 30.03 in 0.5 mi WSW 5.8 mph - N/A Fog Fog
8:12 AM 57.2 °F 57.2 °F 100% 30.03 in 0.1 mi WSW 5.8 mph - N/A Fog Fog
9:00 AM 57.2 °F 57.2 °F 100% 30.03 in 0.1 mi North - - N/A Fog Light Drizzle
10:00 AM 59.0 °F 59.0 °F 100% 30.03 in 0.1 mi SW 6.9 mph - N/A Fog Light Drizzle
11:00 AM 60.8 °F 60.8 °F 100% 30.03 in 0.5 mi SW 8.1 mph - N/A Fog Fog
11:11 AM 60.8 °F 60.8 °F 100% 30.03 in 1.5 mi SW 10.4 mph - N/A   Overcast
11:18 AM 60.8 °F 60.8 °F 100% 30.03 in 2.0 mi WSW 9.2 mph - N/A   Overcast
11:40 AM 62.6 °F 62.6 °F 100% 30.02 in 5.0 mi WSW 9.2 mph - N/A   Mostly Cloudy
12:00 PM 66.2 °F 64.4 °F 94% 30.01 in 8.0 mi WSW 10.4 mph - N/A   Scattered Clouds
1:00 PM 71.6 °F 57.2 °F 60% 29.99 in 15.0 mi WSW 10.4 mph - N/A   Partly Cloudy
2:00 PM 75 °F 57 °F 43% 29.97 in 15 mi SW 12.7 mph - -   Partly Cloudy
2:00 PM 75.2 °F 57.2 °F 53% 29.97 in 15.0 mi SSW 15.0 mph - N/A   Partly Cloudy
3:00 PM 75.2 °F 55.4 °F 50% 29.95 in 15.0 mi SW 13.8 mph 23.0 mph N/A   Scattered Clouds
4:00 PM 73.4 °F 59.0 °F 61% 29.94 in 15.0 mi SW 16.1 mph 27.6 mph N/A   Partly Cloudy
5:00 PM 71.6 °F 59.0 °F 64% 29.94 in 15.0 mi SW 19.6 mph 27.6 mph N/A   Partly Cloudy
6:00 PM 69.8 °F 59.0 °F 68% 29.94 in 15.0 mi SW 18.4 mph 24.2 mph N/A   Partly Cloudy
7:00 PM 68.0 °F 59.0 °F 73% 29.93 in 15.0 mi SW 13.8 mph 20.7 mph N/A   Partly Cloudy
8:00 PM 64 °F 59 °F 78% 29.93 in 15 mi SSW 11.5 mph - -   Scattered Clouds
8:00 PM 64.4 °F 59.0 °F 83% 29.93 in 15.0 mi SSW 11.5 mph - N/A   Partly Cloudy
9:00 PM 64.4 °F 59.0 °F 83% 29.93 in 15.0 mi SSW 12.7 mph - N/A   Partly Cloudy
10:00 PM 62.6 °F 59.0 °F 88% 29.92 in 15.0 mi SSW 12.7 mph - N/A   Partly Cloudy
11:00 PM 62.6 °F 59.0 °F 88% 29.93 in 15.0 mi SW 13.8 mph - N/A   Partly Cloudy